Date String (YYYY-MM-DD hh:mm:ss) UTC,Instrument flags,Ambient pressure (hPa),Sample flow (lpm),Bypass flow (lpm),Sample temperature (°C),Ambient temperature (°C),ASC tube jacket temperature (°C),LED temperature (°C),Box temperature (°C),Sample RH (%),Span deviation,Mass concentration (μg/m³),Mass concentration (μg/m³),Mass concentration (μg/m³)
DateTimeUTC,F1_M11,P_M11,Q1_M11,Q2_M11,T1_M11,T2_M11,T3_M11,T4_M11,T5_M11,U1_M11,ZSPAN_M11,X0_M11,X2_M11,X1_M11
2022-04-17 21:00:00,,0826.0,5.01,0.00,25.8,24.9,00.0,34.8,27.6,16.3,0000.0,0017.05,0004.89,0001.42
2022-04-17 21:01:00,,0826.0,5.00,0.00,25.8,24.9,00.0,34.7,27.5,16.3,0000.0,0017.08,0005.05,0001.47
2022-04-17 21:02:00,,0826.0,4.99,0.00,25.7,24.8,00.0,34.7,27.5,17.0,0000.0,0017.55,0005.09,0001.50
2022-04-17 21:03:00,,0826.0,5.01,0.00,25.7,24.7,00.0,34.7,27.4,17.2,0000.0,0019.21,0005.04,0001.49
2022-04-17 21:04:00,,0826.0,5.00,0.00,25.6,24.7,00.0,34.7,27.4,17.0,0000.0,0019.46,0005.03,0001.49
2022-04-17 21:05:00,,0826.0,4.99,0.00,25.6,24.6,00.0,34.7,27.4,17.2,0000.0,0018.54,0004.95,0001.47
2022-04-17 21:06:00,,0826.0,5.00,0.00,25.6,24.6,00.0,34.6,27.3,17.0,0000.0,0017.82,0004.81,0001.44
2022-04-17 21:07:00,,0825.9,5.01,0.00,25.5,24.6,00.0,34.6,27.2,17.1,0000.0,0016.92,0004.79,0001.42
2022-04-17 21:08:00,,0825.9,4.99,0.00,25.5,24.6,00.0,34.6,27.2,17.1,0000.0,0015.66,0004.65,0001.40
2022-04-17 21:09:00,,0826.0,5.00,0.00,25.5,24.6,00.0,34.6,27.2,17.2,0000.0,0014.71,0004.47,0001.36
2022-04-17 21:10:00,,0826.0,5.00,0.00,25.5,24.6,00.0,34.5,27.1,17.2,0000.0,0014.58,0004.37,0001.33
2022-04-17 21:11:00,,0826.0,5.01,0.00,25.4,24.6,00.0,34.5,27.1,17.2,0000.0,0014.71,0004.30,0001.32
2022-04-17 21:12:00,,0826.0,4.99,0.00,25.4,24.5,00.0,34.5,27.1,17.3,0000.0,0015.00,0004.22,0001.30
2022-04-17 21:13:00,,0825.9,5.00,0.00,25.4,24.6,00.0,34.5,27.2,17.0,0000.0,0014.83,0004.27,0001.29
2022-04-17 21:14:00,,0826.0,5.02,0.00,25.4,24.6,00.0,34.5,27.2,17.1,0000.0,0013.02,0004.31,0001.29
2022-04-17 21:15:00,,0826.0,5.00,0.00,25.4,24.6,00.0,34.5,27.1,17.2,0000.0,0012.60,0004.36,0001.32
2022-04-17 21:16:00,,0826.0,4.99,0.00,25.4,24.6,00.0,34.5,27.1,17.6,0000.0,0012.95,0004.49,0001.32
2022-04-17 21:17:00,,0825.9,4.99,0.00,25.4,24.6,00.0,34.5,27.1,17.3,0000.0,0013.25,0004.61,0001.34
2022-04-17 21:18:00,,0825.8,5.00,0.00,25.4,24.6,00.0,34.5,27.2,16.7,0000.0,0013.54,0004.71,0001.39
2022-04-17 21:19:00,,0825.9,5.02,0.00,25.4,24.7,00.0,34.4,27.2,16.1,0000.0,0013.92,0004.84,0001.43
2022-04-17 21:20:00,,0825.9,5.01,0.00,25.4,24.7,00.0,34.4,27.2,15.8,0000.0,0014.47,0005.04,0001.48
2022-04-17 21:21:00,,0825.8,5.00,0.00,25.4,24.7,00.0,34.4,27.2,16.1,0000.0,0014.84,0005.28,0001.55
2022-04-17 21:22:00,,0825.7,5.00,0.00,25.5,24.8,00.0,34.4,27.2,15.5,0000.0,0015.82,0005.55,0001.63
2022-04-17 21:23:00,,0825.7,5.00,0.00,25.5,24.8,00.0,34.4,27.2,15.6,0000.0,0016.28,0005.77,0001.69
2022-04-17 21:24:00,,0825.6,5.00,0.00,25.5,24.8,00.0,34.4,27.3,15.1,0000.0,0016.72,0005.87,0001.75
2022-04-17 21:25:00,,0825.8,5.00,0.00,25.5,24.8,00.0,34.4,27.3,14.2,0000.0,0017.94,0006.20,0001.89
2022-04-17 21:26:00,,0825.7,5.00,0.00,25.5,24.8,00.0,34.4,27.3,15.0,0000.0,0018.64,0006.42,0002.00
2022-04-17 21:27:00,,0825.8,5.00,0.00,25.5,24.8,00.0,34.5,27.3,15.0,0000.0,0019.45,0006.61,0002.09
2022-04-17 21:28:00,,0825.8,5.00,0.00,25.5,24.8,00.0,34.5,27.3,14.8,0000.0,0020.63,0006.88,0002.19
2022-04-17 21:29:00,,0825.7,5.00,0.00,25.6,24.9,00.0,34.5,27.4,15.0,0000.0,0021.40,0007.12,0002.25
2022-04-17 21:30:00,,0825.8,5.00,0.00,25.6,24.9,00.0,34.5,27.4,15.2,0000.0,0023.22,0007.34,0002.30
2022-04-17 21:31:00,,0825.8,5.00,0.00,25.6,24.9,00.0,34.5,27.4,15.3,0000.0,0023.53,0007.36,0002.30
2022-04-17 21:32:00,,0825.8,4.99,0.00,25.6,24.9,00.0,34.5,27.4,15.6,0000.0,0024.37,0007.42,0002.32
2022-04-17 21:33:00,,0825.7,5.00,0.00,25.6,25.0,00.0,34.5,27.4,15.3,0000.0,0024.58,0007.48,0002.32
2022-04-17 21:34:00,,0825.7,5.00,0.00,25.6,25.0,00.0,34.5,27.4,14.7,0000.0,0025.01,0007.54,0002.37
2022-04-17 21:35:00,,0825.8,5.00,0.00,25.6,25.0,00.0,34.5,27.4,14.4,0000.0,0025.03,0007.62,0002.40
2022-04-17 21:36:00,,0825.7,4.99,0.00,25.6,25.0,00.0,34.5,27.4,15.0,0000.0,0024.52,0007.59,0002.37
2022-04-17 21:37:00,,0825.7,4.99,0.00,25.7,25.0,00.0,34.5,27.5,15.3,0000.0,0024.40,0007.56,0002.35
2022-04-17 21:38:00,,0825.9,5.01,0.00,25.7,25.1,00.0,34.6,27.5,14.8,0000.0,0024.70,0007.52,0002.37
2022-04-17 21:39:00,,0825.7,5.00,0.00,25.7,25.1,00.0,34.6,27.6,14.2,0000.0,0025.33,0007.52,0002.40
2022-04-17 21:40:00,,0825.6,5.01,0.00,25.7,25.1,00.0,34.6,27.6,13.2,0000.0,0025.42,0007.50,0002.43
2022-04-17 21:41:00,,0825.8,5.01,0.00,25.8,25.1,00.0,34.6,27.6,13.3,0000.0,0024.25,0007.56,0002.50
2022-04-17 21:42:00,,0825.6,5.00,0.00,25.8,25.1,00.0,34.6,27.6,12.5,0000.0,0024.43,0007.71,0002.54
2022-04-17 21:43:00,,0825.7,5.01,0.00,25.8,25.1,00.0,34.6,27.6,12.0,0000.0,0023.88,0007.81,0002.61
2022-04-17 21:44:00,,0825.7,5.00,0.00,25.8,25.1,00.0,34.6,27.7,12.0,0000.0,0024.62,0007.99,0002.72
2022-04-17 21:45:00,,0825.6,4.99,0.00,25.8,25.1,00.0,34.6,27.7,11.8,0000.0,0025.63,0008.23,0002.79
2022-04-17 21:46:00,,0825.4,5.00,0.00,25.8,25.2,00.0,34.7,27.7,11.8,0000.0,0026.77,0008.44,0002.87
2022-04-17 21:47:00,,0825.5,4.99,0.00,25.9,25.2,00.0,34.7,27.8,11.9,0000.0,0027.40,0008.55,0002.95
2022-04-17 21:48:00,,0825.8,5.00,0.00,25.9,25.2,00.0,34.7,27.8,12.7,0002.1,0028.25,0008.83,0003.03
2022-04-17 21:49:00,,0825.9,5.00,0.00,25.9,25.2,00.0,34.7,27.8,15.2,0002.1,0028.68,0008.83,0003.03
2022-04-17 21:50:00,,0825.9,4.99,0.00,25.9,25.2,00.0,34.7,27.8,13.5,0002.0,0027.61,0008.78,0002.98
2022-04-17 21:51:00,,0825.9,5.00,0.00,25.9,25.2,00.0,34.7,27.8,14.3,0001.5,0027.53,0008.82,0002.95
2022-04-17 21:52:00,,0825.8,5.00,0.00,26.0,25.3,00.0,34.8,27.8,13.2,0002.9,0027.49,0008.75,0002.90
2022-04-17 21:53:00,,0825.6,5.00,0.00,26.0,25.3,00.0,34.8,27.9,12.3,0002.3,0027.79,0008.82,0002.89
2022-04-17 21:54:00,,0825.7,5.01,0.00,26.0,25.3,00.0,34.8,27.9,12.0,0002.1,0028.41,0008.95,0002.88
2022-04-17 21:55:00,,0825.5,5.00,0.00,26.0,25.3,00.0,34.8,27.9,11.9,0003.5,0028.29,0009.00,0002.85
2022-04-17 21:56:00,,0825.6,5.01,0.00,26.0,25.3,00.0,34.8,27.9,12.0,0001.5,0026.85,0008.89,0002.79
2022-04-17 21:57:00,,0825.5,4.99,0.00,26.0,25.3,00.0,34.8,27.9,12.2,0000.0,0026.14,0008.77,0002.75
2022-04-17 21:58:00,,0825.6,4.99,0.00,26.0,25.3,00.0,34.8,27.9,12.2,0000.0,0026.08,0008.83,0002.74
2022-04-17 21:59:00,,0825.5,5.01,0.00,26.1,25.3,00.0,34.8,27.9,11.4,0000.0,0026.34,0008.86,0002.76
